Bradford, PA

10:09 AM EST on December 06, 2019 (GMT -0500)
Bradford Regional

Weather History for KBFD - August, 2019

Change the Weather History Date:

Tuesday, August 20, 2019

  Actual Average Record
Temperature  
Mean Temperature 69 °F 64 °F  
Max Temperature 83 °F 75 °F 84 °F (1959)
Min Temperature 55 °F 52 °F 35 °F (1998)
Degree Days  
Heating Degree Days 0 1  
Month to date heating degree days 11 12  
Since 1 June heating degree days 145 221  
Since 1 July heating degree days 23 76  
Cooling Degree Days 4 2  
Month to date cooling degree days 55 40  
Year to date cooling degree days 245 164  
Since 1 June cooling degree days 238 154  
Growing Degree Days 18 (Base 50)    
Moisture  
Dew Point 60 °F    
Average Humidity 78    
Maximum Humidity 100    
Minimum Humidity 55    
Precipitation  
Precipitation 0.00 in 0.14 in 1.95 in (1999)
Month to date precipitation 3.66 2.68  
Year to date precipitation 31.63 28.52  
Sea Level Pressure  
Sea Level Pressure 30.13 in    
Wind  
Wind Speed 3 mph (SSE)    
Max Wind Speed 10 mph    
Max Gust Speed 15 mph    
Visibility 6 miles    
Events Fog    
T = Trace of Precipitation, MM = Missing Value Source: NWS Daily Summary

Daily Weather History Graph

Daily Weather History Graph

Search for Another Location

Airport or City:

Astronomy

Aug. 20, 2019 Rise Set
Actual Time 6:27 AM EDT 8:07 PM EDT
Civil Twilight 5:58 AM EDT 8:36 PM EDT
Nautical Twilight 5:22 AM EDT 9:12 PM EDT
Astronomical Twilight 4:44 AM EDT 9:50 PM EDT
Moon 10:50 PM EDT (8/20) 11:07 AM EDT (8/20)
Length of Visible Light 14h 38m
Length of Day
13h 39m
Waning Gibbous, 78% of the Moon is Illuminated
Aug 20
Waning Gibbous
Aug 23
Last Quarter
Aug 30
New
Sep 5
First Quarter
Sep 14
Full

Hourly Weather History & Observations

Time (EDT) Temp. Heat Index Dew Point Humidity Pressure Visibility Wind Dir Wind Speed Gust Speed Precip Events Conditions
12:02 AM 61.0 °F - 60.1 °F 97% 30.15 in 6.0 mi Calm Calm - N/A   Clear
12:53 AM 61.0 °F - 59.0 °F 93% 30.12 in 10.0 mi Calm Calm - N/A   Clear
1:53 AM 60.1 °F - 59.0 °F 96% 30.12 in 10.0 mi Calm Calm - N/A   Clear
2:28 AM 57.9 °F - 57.0 °F 97% 30.16 in 1.8 mi Calm Calm - N/A   Clear
2:42 AM 57.9 °F - 57.9 °F 100% 30.16 in 4.0 mi Calm Calm - N/A   Clear
2:53 AM 59.0 °F - 57.9 °F 96% 30.12 in 7.0 mi Calm Calm - N/A   Clear
3:19 AM 57.0 °F - 55.9 °F 96% 30.16 in 1.5 mi Calm Calm - N/A   Partly Cloudy
3:23 AM 55.9 °F - 55.9 °F 100% 30.16 in 0.8 mi Calm Calm - N/A   Mist
3:36 AM 57.0 °F - 57.0 °F 100% 30.16 in 1.2 mi Calm Calm - N/A   Partly Cloudy
3:41 AM 57.0 °F - 57.0 °F 100% 30.16 in 4.0 mi Calm Calm - N/A   Partly Cloudy
3:46 AM 57.0 °F - 57.0 °F 100% 30.16 in 1.0 mi Calm Calm - N/A   Mist
4:04 AM 55.9 °F - 55.9 °F 100% 30.16 in 1.2 mi Calm Calm - N/A   Scattered Clouds
4:08 AM 55.9 °F - 55.9 °F 100% 30.16 in 3.0 mi Calm Calm - N/A   Scattered Clouds
4:23 AM 57.0 °F - 57.0 °F 100% 30.16 in 5.0 mi Calm Calm - N/A   Mostly Cloudy
4:31 AM 57.9 °F - 57.0 °F 97% 30.16 in 10.0 mi Calm Calm - N/A   Partly Cloudy
4:53 AM 57.0 °F - 55.9 °F 96% 30.12 in 7.0 mi Calm Calm - N/A   Clear
5:10 AM 55.9 °F - 55.0 °F 97% 30.16 in 2.5 mi Calm Calm - N/A   Clear
5:14 AM 55.9 °F - 55.0 °F 97% 30.16 in 6.0 mi Calm Calm - N/A   Partly Cloudy
5:24 AM 55.9 °F - 55.0 °F 97% 30.16 in 1.8 mi Calm Calm - N/A   Scattered Clouds
5:33 AM 55.0 °F - 54.0 °F 96% 30.16 in 2.5 mi Calm Calm - N/A   Mostly Cloudy
5:53 AM 55.0 °F - 55.0 °F 100% 30.13 in 0.5 mi Calm Calm - N/A Fog Fog
6:53 AM 55.0 °F - 55.0 °F 100% 30.14 in 1.0 mi Calm Calm - N/A   Mist
7:00 AM 55.0 °F - 55.0 °F 100% 30.17 in 0.5 mi Calm Calm - N/A Fog Fog
7:08 AM 55.9 °F - 55.9 °F 100% 30.18 in 2.0 mi Calm Calm - N/A   Overcast
7:17 AM 55.9 °F - 55.9 °F 100% 30.18 in 0.8 mi Calm Calm - N/A   Mist
7:39 AM 57.9 °F - 57.9 °F 100% 30.18 in 1.0 mi Calm Calm - N/A   Mist
7:51 AM 59.0 °F - 59.0 °F 100% 30.18 in 4.0 mi Calm Calm - N/A   Mostly Cloudy
7:53 AM 60.1 °F - 59.0 °F 96% 30.14 in 6.0 mi Calm Calm - N/A   Mostly Cloudy
8:02 AM 61.0 °F - 61.0 °F 100% 30.18 in 9.0 mi Calm Calm - N/A   Partly Cloudy
8:53 AM 68.0 °F - 63.0 °F 84% 30.15 in 10.0 mi ESE 5.8 mph - N/A   Clear
9:53 AM 73.0 °F - 63.0 °F 71% 30.14 in 10.0 mi SSE 4.6 mph - N/A   Clear
10:53 AM 75.0 °F - 64.0 °F 69% 30.13 in 10.0 mi South 3.5 mph - N/A   Partly Cloudy
11:53 AM 78.1 °F - 64.0 °F 62% 30.15 in 10.0 mi Variable 5.8 mph - N/A   Mostly Cloudy
12:53 PM 79.0 °F - 64.0 °F 60% 30.13 in 10.0 mi SSW 6.9 mph - N/A   Partly Cloudy
1:53 PM 79.0 °F - 64.0 °F 60% 30.10 in 10.0 mi South 4.6 mph - N/A   Mostly Cloudy
2:53 PM 82.0 °F 83.8 °F 64.9 °F 56% 30.09 in 10.0 mi Variable 5.8 mph - N/A   Mostly Cloudy
3:53 PM 81.0 °F 82.5 °F 64.0 °F 56% 30.07 in 10.0 mi Variable 5.8 mph - N/A   Partly Cloudy
4:53 PM 82.9 °F 84.4 °F 64.0 °F 53% 30.04 in 10.0 mi SSW 5.8 mph - N/A   Clear
5:53 PM 82.0 °F 83.4 °F 64.0 °F 54% 30.04 in 10.0 mi Variable 4.6 mph - N/A   Partly Cloudy
6:53 PM 80.1 °F 81.9 °F 64.9 °F 60% 30.03 in 10.0 mi South 3.5 mph - N/A   Clear
7:53 PM 73.9 °F - 69.1 °F 85% 30.02 in 10.0 mi Calm Calm - N/A   Partly Cloudy
8:53 PM 69.1 °F - 66.9 °F 93% 30.02 in 10.0 mi SE 3.5 mph - N/A   Clear
9:53 PM 68.0 °F - 66.9 °F 96% 30.01 in 10.0 mi Calm Calm - N/A   Clear
10:53 PM 68.0 °F - 66.9 °F 96% 30.01 in 10.0 mi SE 3.5 mph - N/A   Clear
11:53 PM 68.0 °F - 66.9 °F 96% 29.99 in 10.0 mi SE 4.6 mph - N/A   Clear